Total_Precipitation_Accumulation
1.80 1.93 1.84 1.75 1.74 1.71 1.82 1.94 1.89 1.66 1.43 1.30 1.16 1.02 0.99 0.99 0.97 0.95 0.94 0.84 0.72 0.67 0.62 0.60 0.62 0.66 0.74 0.90 1.07 1.24 1.34 1.42 1.50 1.57 1.67 1.83 2.00 2.19
1.70 1.77 1.76 1.76 1.90 1.83 1.84 1.93 2.00 1.91 1.53 1.37 1.27 1.04 1.11 0.89 0.87 0.89 0.92 0.82 0.66 0.58 0.56 0.56 0.57 0.60 0.62 0.67 0.77 0.91 1.06 1.17 1.25 1.34 1.37 1.39 1.42 1.53
1.39 1.42 1.44 1.57 1.72 1.68 1.73 1.78 1.90 1.96 1.64 1.48 1.58 1.46 1.43 1.21 1.04 0.96 0.81 0.79 0.71 0.60 0.53 0.50 0.50 0.54 0.60 0.61 0.61 0.67 0.78 0.90 0.99 1.11 1.26 1.35 1.39 1.43
1.30 1.35 1.29 1.37 1.48 1.49 1.59 1.66 1.78 1.97 1.79 1.67 1.76 1.79 1.72 1.52 1.39 1.19 0.89 0.75 0.77 0.73 0.57 0.49 0.47 0.49 0.56 0.60 0.57 0.56 0.60 0.66 0.71 0.79 0.94 1.09 1.23 1.36
1.14 1.14 1.12 1.21 1.25 1.32 1.44 1.46 1.54 1.81 1.87 1.73 1.76 2.03 1.98 1.78 1.76 1.48 1.25 1.15 0.84 0.77 0.65 0.54 0.51 0.50 0.53 0.61 0.62 0.58 0.56 0.56 0.58 0.65 0.77 0.92 1.02 1.11
0.94 0.85 0.85 0.97 1.04 1.16 1.26 1.35 1.46 1.62 1.79 1.82 1.78 1.97 2.04 1.92 2.03 1.81 1.55 1.38 1.12 0.88 0.82 0.62 0.56 0.56 0.55 0.57 0.61 0.64 0.65 0.64 0.65 0.72 0.77 0.83 0.94 1.03
0.94 0.78 0.69 0.71 0.79 0.95 0.97 1.13 1.34 1.48 1.55 1.68 1.74 1.85 2.06 2.09 1.95 1.91 1.74 1.57 1.45 1.31 1.28 0.93 0.66 0.58 0.57 0.57 0.61 0.69 0.76 0.79 0.81 0.88 0.97 1.02 1.05 1.09
0.96 0.92 0.81 0.72 0.70 0.74 0.78 0.85 0.95 1.08 1.26 1.46 1.53 1.64 1.86 2.06 2.07 2.10 2.00 1.77 1.60 1.48 1.56 1.54 1.19 0.94 0.76 0.57 0.58 0.66 0.79 0.90 0.94 0.99 1.08 1.22 1.34 1.33
0.97 0.94 0.77 0.65 0.71 0.71 0.74 0.75 0.77 0.76 0.82 1.03 1.16 1.20 1.41 1.73 2.06 2.14 2.21 2.05 1.83 1.78 1.85 1.91 1.94 1.69 1.18 0.86 0.78 0.68 0.75 0.88 0.95 1.01 1.09 1.14 1.31 1.47
0.93 0.93 0.91 0.86 0.80 0.82 0.84 0.80 0.69 0.65 0.68 0.69 0.76 0.96 1.13 1.39 1.76 1.94 2.20 2.37 2.21 2.11 2.12 2.17 2.19 2.40 1.93 1.37 1.15 0.92 0.87 0.91 0.98 1.03 1.09 1.17 1.25 1.34
0.91 0.92 0.92 0.88 0.87 0.83 0.84 0.86 0.78 0.75 0.74 0.75 0.74 0.86 1.05 1.18 1.45 1.78 2.03 2.18 2.23 2.29 2.33 2.39 2.33 2.46 2.75 2.30 1.60 1.22 0.99 0.91 0.95 1.00 1.05 1.16 1.23 1.22
1.04 1.04 0.94 0.84 0.89 0.84 0.78 0.85 0.86 0.88 0.93 0.89 0.86 0.88 0.94 1.08 1.33 1.59 1.80 2.01 2.04 2.12 2.01 1.97 1.99 2.13 2.56 2.79 2.41 1.79 1.33 1.12 0.99 0.96 0.97 1.06 1.16 1.06
1.13 1.14 1.07 0.91 0.75 0.71 0.72 0.77 0.81 0.90 1.01 1.04 1.06 1.10 1.17 1.19 1.23 1.41 1.66 1.87 1.94 1.77 1.55 1.64 1.81 1.89 1.96 2.18 2.35 2.28 1.90 1.56 1.32 1.15 1.06 1.04 1.08 1.07
1.34 1.30 1.22 1.05 0.87 0.77 0.70 0.73 0.81 0.84 0.93 1.04 1.04 1.04 1.09 1.11 1.15 1.29 1.49 1.63 1.72 1.71 1.63 1.69 1.83 1.84 1.90 1.94 1.98 2.05 2.09 1.94 1.76 1.60 1.49 1.46 1.31 1.25
1.50 1.48 1.39 1.18 1.01 0.87 0.78 0.79 0.81 0.81 0.87 0.94 0.90 0.87 0.89 0.96 1.06 1.22 1.37 1.51 1.57 1.53 1.52 1.58 1.64 1.64 1.73 1.79 1.74 1.68 1.78 1.90 1.91 1.87 1.88 1.84 1.70 1.56
1.54 1.47 1.41 1.30 1.15 1.06 1.00 0.93 0.86 0.92 0.96 0.94 0.95 0.94 0.99 1.08 1.16 1.21 1.33 1.46 1.61 1.56 1.50 1.54 1.58 1.66 1.61 1.49 1.43 1.32 1.31 1.44 1.61 1.76 1.95 2.13 2.15 2.07
1.70 1.56 1.48 1.38 1.27 1.21 1.16 1.09 1.03 1.03 1.02 1.01 1.04 1.03 1.02 1.07 1.14 1.17 1.27 1.32 1.38 1.40 1.42 1.48 1.59 1.70 1.69 1.62 1.49 1.31 1.24 1.18 1.23 1.50 1.82 2.06 2.08 1.93
1.40 1.39 1.39 1.37 1.30 1.25 1.22 1.16 1.11 1.08 1.07 1.07 1.07 1.05 1.01 1.02 1.09 1.21 1.31 1.30 1.24 1.24 1.31 1.36 1.57 1.76 1.80 1.63 1.32 1.20 1.18 1.14 1.14 1.29 1.47 1.56 1.56 1.47
1.17 1.25 1.23 1.23 1.22 1.20 1.19 1.13 1.10 1.08 1.11 1.12 1.07 1.07 1.06 1.07 1.09 1.19 1.29 1.31 1.25 1.22 1.32 1.45 1.56 1.66 1.63 1.44 1.25 1.03 1.03 1.05 1.14 1.27 1.34 1.32 1.22 1.09
1.11 1.16 1.17 1.18 1.19 1.20 1.19 1.14 1.14 1.16 1.19 1.20 1.18 1.17 1.18 1.19 1.20 1.21 1.27 1.31 1.28 1.26 1.33 1.43 1.46 1.48 1.46 1.35 1.26 1.13 0.94 1.00 1.06 1.13 1.19 1.21 1.12 0.98
1.20 1.23 1.23 1.21 1.23 1.27 1.27 1.23 1.23 1.20 1.18 1.22 1.21 1.20 1.17 1.17 1.21 1.22 1.28 1.35 1.33 1.29 1.25 1.25 1.32 1.41 1.51 1.65 1.54 1.33 1.17 1.04 1.06 1.06 1.13 1.23 1.23 1.17
1.16 1.21 1.22 1.21 1.24 1.28 1.26 1.23 1.24 1.21 1.18 1.17 1.16 1.16 1.16 1.14 1.16 1.21 1.25 1.27 1.24 1.20 1.17 1.18 1.32 1.49 1.56 1.59 1.49 1.37 1.32 1.26 1.21 1.15 1.08 1.03 1.04 1.04
1.13 1.16 1.13 1.10 1.13 1.15 1.10 1.09 1.13 1.17 1.19 1.18 1.16 1.13 1.12 1.09 1.07 1.12 1.17 1.21 1.23 1.25 1.27 1.31 1.34 1.41 1.46 1.47 1.50 1.46 1.37 1.34 1.34 1.31 1.22 1.04 0.79 0.69